Regional Weather Roundup
Issued by NWS

Home | Current Version | Previous Version | Text Only | Print | Product List | Glossary Off
Versions: 1 2 3 4 5 6 7 8 9 10 11 12 13 14 15 16 17 18 19 20 21 22 23 24 25 26 27 28 29 30 31 32 33 34 35 36 37 38 39 40 41 42 43 44 45 46 47 48 49 50

000
ASUS43 KLMK 310402
RWRKY
KENTUCKY REGIONAL WEATHER ROUNDUP
NATIONAL WEATHER SERVICE LOUISVILLE KY
1200 AM EDT FRI OCT 31 2014

NOTE "FAIR" INDICATES FEW OR NO CLOUDS BELOW 12,000 FEET
WITH NO SIGNIFICANT WEATHER AND/OR OBSTRUCTIONS TO VISIBILITY.

KYZ001>023-026-027-061>063-070>075-310500-
WESTERN AND SOUTH CENTRAL KENTUCKY

CITY           SKY/WX    TMP DP  RH WIND       PRES   REMARKS
PADUCAH        CLOUDY    52  50  93 CALM      30.03S
HENDERSON      CLOUDY    50  43  76 CALM      30.04S
OWENSBORO      MOCLDY    50  44  79 CALM      30.05S
HOPKINSVILLE   NOT AVBL
BOWLING GREEN  MOCLDY    47  40  76 CALM      30.05F
GLASGOW        NOT AVBL
$$

KYZ024-025-028>034-038-045-046-053-310500-
NORTH CENTRAL KENTUCKY

CITY           SKY/WX    TMP DP  RH WIND       PRES   REMARKS
LOUISVILLE/SDF CLOUDY    50  38  63 SE8       30.04F
LOUISVILLE/LOU CLOUDY    49  39  68 CALM      30.05F
FORT KNOX      CLOUDY    46  41  82 CALM      30.03F
$$

KYZ035>037-039>044-047>052-055>060-089>105-310500-
NORTHEAST KENTUCKY

CITY           SKY/WX    TMP DP  RH WIND       PRES   REMARKS
LEXINGTON      CLOUDY    43  36  76 E3        30.04F
COVINGTON      PTCLDY    43  35  73 CALM      30.04F
FRANKFORT      CLOUDY    40  37  89 CALM      30.04F
$$

KYZ054-064>069-076>088-106>120-310500-
SOUTHEAST KENTUCKY

CITY           SKY/WX    TMP DP  RH WIND       PRES   REMARKS
JACKSON        PTCLDY    42  33  70 CALM      30.04F
LONDON         NOT AVBL
SOMERSET       CLEAR     41  36  81 CALM      30.06F
MIDDLESBORO    NOT AVBL
MONTICELLO     NOT AVBL
$$




USA.gov is the U.S. government's official web portal to all federal, state and local government web resources and services.